Total_Precipitation_Accumulation
1.00 1.01 0.97 1.05 1.04 1.03 1.09 1.07 0.94 0.94 0.92 0.81 0.78 0.80 0.86 0.88 1.02 1.16 1.45 1.96 2.62 3.29 3.46 3.19 2.70 2.39 2.28 2.24 2.16 2.12 2.07 2.09 2.25 2.45 2.35 2.25 2.32 2.35 2.29 2.58 2.82 3.14 3.29
0.85 0.97 0.99 1.07 1.02 1.06 1.12 1.02 0.98 1.01 1.00 0.89 0.83 0.85 0.85 0.88 0.96 1.09 1.26 1.58 1.98 2.63 3.31 3.49 3.13 2.74 2.49 2.46 2.47 2.49 2.27 2.13 2.15 2.37 2.42 2.26 2.25 2.18 2.15 2.33 2.65 2.90 3.32
0.82 0.95 1.03 1.04 1.04 1.06 1.07 1.09 1.10 1.07 0.99 0.91 0.92 0.90 0.86 0.86 1.02 1.15 1.21 1.40 1.47 1.61 2.30 3.09 3.39 3.24 2.98 2.97 2.87 2.68 2.49 2.32 2.16 2.23 2.35 2.26 2.19 2.01 2.10 2.17 2.28 2.41 2.92
0.87 1.09 1.15 1.04 1.10 1.20 1.23 1.26 1.22 1.15 1.08 1.07 1.10 1.07 0.99 1.01 1.17 1.24 1.20 1.18 1.24 1.18 1.42 1.94 2.43 2.81 3.14 3.27 3.23 3.02 2.75 2.53 2.22 2.17 2.19 2.18 2.08 1.89 1.94 2.05 2.11 2.24 2.47
1.05 1.26 1.32 1.20 1.18 1.34 1.33 1.23 1.28 1.34 1.31 1.35 1.26 1.29 1.25 1.25 1.24 1.16 1.14 1.20 1.26 1.27 1.34 1.30 1.53 1.90 2.58 3.14 3.45 3.62 3.24 2.97 2.64 2.42 2.31 2.12 1.98 1.88 1.87 1.91 1.97 2.11 2.20
1.24 1.43 1.56 1.50 1.44 1.58 1.61 1.50 1.63 1.71 1.64 1.69 1.55 1.46 1.40 1.38 1.31 1.29 1.26 1.31 1.44 1.36 1.41 1.36 1.35 1.21 1.60 2.33 2.98 3.48 3.49 3.31 3.02 2.64 2.46 2.10 1.98 1.85 1.79 1.81 1.86 2.00 2.13
1.64 1.78 1.77 1.98 2.03 2.02 2.06 2.04 2.21 2.27 2.01 1.88 2.24 2.19 1.77 1.44 1.30 1.37 1.46 1.51 1.62 1.65 1.62 1.58 1.54 1.32 1.24 1.56 2.18 3.10 3.36 3.26 3.07 2.77 2.66 2.39 2.09 1.90 1.82 1.83 1.87 1.85 1.99
2.00 1.92 2.02 2.27 2.31 2.42 2.53 2.39 2.57 2.70 2.39 2.10 2.58 3.08 2.67 2.18 1.51 1.26 1.37 1.54 1.72 1.75 1.69 1.57 1.57 1.55 1.47 1.54 1.67 2.32 2.90 3.22 3.16 2.98 2.83 2.74 2.32 2.07 1.91 1.88 1.89 1.87 1.84
2.44 2.31 2.26 2.41 2.45 2.54 2.75 2.78 2.74 2.91 2.88 2.53 2.50 3.09 3.10 2.70 2.23 1.65 1.46 1.53 1.72 1.83 1.88 1.85 1.68 1.69 1.60 1.68 1.80 1.69 1.92 2.49 2.97 2.99 2.90 2.84 2.60 2.29 2.00 1.94 1.94 1.87 1.71
2.61 2.53 2.48 2.56 2.59 2.59 2.69 2.74 2.74 3.04 3.29 3.08 2.77 2.52 2.49 2.52 2.56 2.20 1.79 1.63 1.75 1.85 1.98 1.91 1.93 1.99 1.94 1.90 1.90 1.65 1.49 1.67 2.19 2.66 2.84 2.92 2.78 2.51 2.21 2.09 2.12 1.98 1.86
2.40 2.28 2.37 2.52 2.55 2.58 2.59 2.75 2.88 3.15 3.22 3.15 3.05 2.90 2.70 2.51 2.13 2.22 2.19 1.96 1.89 1.81 1.92 2.07 2.15 2.19 2.13 2.25 2.34 1.84 1.47 1.40 1.72 2.19 2.65 2.89 2.98 2.92 2.64 2.35 2.24 2.22 2.18
2.30 2.16 2.21 2.30 2.38 2.44 2.42 2.47 2.66 2.85 3.10 3.25 3.17 3.00 2.97 2.89 2.66 2.45 2.15 2.02 2.15 2.03 1.91 1.92 2.00 2.08 2.23 2.35 2.25 2.03 1.55 1.39 1.51 1.65 1.95 2.45 2.84 3.08 3.02 2.85 2.66 2.51 2.52
2.25 2.23 2.15 2.17 2.21 2.25 2.33 2.51 2.52 2.61 2.82 3.02 3.05 2.98 2.97 2.82 2.74 2.72 2.45 2.10 2.05 2.00 1.93 1.89 1.87 1.93 2.01 2.11 2.14 2.05 1.62 1.51 1.43 1.39 1.40 1.54 1.97 2.50 2.94 3.15 3.10 2.88 2.87
1.83 1.81 1.86 1.97 2.09 2.15 2.23 2.39 2.48 2.49 2.56 2.62 2.64 2.83 2.93 2.82 2.62 2.54 2.53 2.57 2.32 2.11 1.96 1.88 1.82 1.80 1.84 1.85 1.98 2.01 1.56 1.45 1.36 1.28 1.22 1.12 1.24 1.54 2.05 2.47 2.59 2.67 2.89
1.43 1.46 1.51 1.65 1.84 1.96 2.00 2.12 2.31 2.30 2.37 2.39 2.46 2.52 2.54 2.62 2.50 2.32 2.27 2.38 2.51 2.32 2.16 1.99 1.80 1.60 1.65 1.63 1.70 1.50 1.43 1.43 1.36 1.25 1.13 1.03 0.98 1.08 1.37 1.73 1.90 1.84 1.90
1.37 1.43 1.45 1.48 1.60 1.68 1.78 1.93 2.05 2.15 2.21 2.18 2.16 2.23 2.28 2.32 2.34 2.30 2.27 2.29 2.31 2.30 2.20 1.98 1.69 1.44 1.48 1.55 1.71 1.45 1.50 1.69 1.55 1.34 1.10 1.04 1.00 0.98 1.06 1.20 1.31 1.24 1.19
1.43 1.45 1.48 1.50 1.51 1.56 1.60 1.69 1.82 1.97 1.98 1.99 1.87 1.90 2.03 2.11 2.30 2.34 2.30 2.26 2.25 2.17 2.06 1.96 1.70 1.49 1.46 1.56 1.62 1.50 1.53 1.58 1.49 1.40 1.18 1.08 0.98 1.02 1.06 1.09 1.17 1.11 0.97
1.30 1.35 1.45 1.40 1.38 1.41 1.47 1.57 1.67 1.71 1.77 1.73 1.64 1.67 1.79 1.87 2.03 2.13 2.23 2.14 2.15 2.12 2.11 2.07 1.84 1.63 1.54 1.56 1.64 1.59 1.46 1.44 1.46 1.52 1.32 1.20 1.09 1.00 1.06 1.06 1.16 1.22 1.13
1.26 1.34 1.44 1.52 1.42 1.32 1.38 1.44 1.48 1.48 1.48 1.41 1.40 1.47 1.54 1.62 1.75 1.86 1.96 2.05 2.07 2.01 2.10 2.08 1.88 1.69 1.53 1.48 1.54 1.50 1.44 1.49 1.41 1.49 1.42 1.28 1.22 1.12 1.11 1.10 1.10 1.20 1.21
1.10 1.14 1.27 1.37 1.40 1.34 1.27 1.25 1.24 1.38 1.36 1.26 1.16 1.16 1.19 1.24 1.37 1.50 1.61 1.78 1.94 2.06 2.13 2.15 1.99 1.74 1.55 1.48 1.55 1.61 1.59 1.50 1.50 1.41 1.42 1.39 1.37 1.31 1.22 1.20 1.10 1.10 1.18
0.98 1.03 1.19 1.34 1.39 1.36 1.36 1.34 1.23 1.25 1.30 1.30 1.21 1.08 1.00 1.01 1.12 1.20 1.28 1.55 1.75 1.91 2.04 2.10 2.01 1.83 1.65 1.56 1.53 1.53 1.61 1.69 1.69 1.53 1.48 1.40 1.35 1.19 1.08 1.10 1.10 1.04 1.03
0.91 0.92 1.01 1.15 1.29 1.25 1.42 1.47 1.36 1.22 1.21 1.21 1.20 1.17 1.14 1.11 0.98 0.93 0.99 1.15 1.38 1.57 1.76 1.88 1.91 1.75 1.58 1.54 1.59 1.60 1.60 1.66 1.71 1.57 1.51 1.58 1.51 1.36 1.21 1.09 1.16 1.09 1.03
0.87 0.88 0.95 1.09 1.24 1.42 1.48 1.30 1.36 1.31 1.22 1.21 1.17 1.16 1.19 1.16 1.21 1.07 1.01 0.99 1.00 1.18 1.42 1.62 1.64 1.57 1.64 1.58 1.54 1.50 1.49 1.49 1.51 1.54 1.54 1.57 1.55 1.43 1.25 1.19 1.27 1.21 1.15
0.87 0.89 0.95 1.03 1.11 1.35 1.45 1.26 1.44 1.44 1.38 1.33 1.27 1.27 1.32 1.34 1.28 1.39 1.34 1.20 1.09 1.06 1.18 1.12 1.19 1.47 1.60 1.62 1.63 1.64 1.68 1.59 1.52 1.51 1.45 1.48 1.40 1.34 1.21 1.14 1.21 1.15 1.09
0.86 0.88 0.87 0.89 0.91 1.02 1.18 1.12 1.26 1.35 1.45 1.43 1.30 1.28 1.30 1.29 1.52 1.59 1.43 1.35 1.24 1.16 1.33 1.36 1.37 1.42 1.50 1.49 1.47 1.54 1.60 1.56 1.50 1.46 1.36 1.27 1.21 1.29 1.33 1.23 1.19 1.26 1.20
0.91 0.84 0.82 0.80 0.81 0.83 1.03 0.93 1.04 1.13 1.28 1.42 1.38 1.30 1.46 1.40 1.42 1.39 1.29 1.43 1.36 1.22 1.14 1.11 1.12 1.17 1.20 1.25 1.31 1.31 1.45 1.49 1.42 1.44 1.31 1.25 1.21 1.27 1.33 1.23 1.12 1.11 1.16